English version (google)  Retour à l'accueil Ecrire à l'auteur du site Runraid : Michel Jourdan


 Visitez La Boutique 



Les prochaines courses


Les derniers résultats

cliquez pour visualiser la page complète relatant la chronologie des éruptions du Piton de la Fournaise
éruptions Piton de la Fournaise


Ile de La Réunion

 Diagonale des Fous 

Ecrire au créateur du site : Michel Jourdan
Contact


2020-10-31 - Finale Golden Trail Series Azores Trail Run

Pour consulter le palmarès d'un coureur, un clic sur son nom !

Vous avez des remarques, corrections, ... sur ces résultats , un clic sur --> pour me transmettre toute information concernant les classements


Finale Golden Trail Series Azores Trail Run - 2020 : classement des 170 finishers
Place Nom Temps Cat. Club Sexe Clt/cat.
Place Nom Temps Cat. Club Sexe Clt/cat.
1 PRZEDWOJEWSKI BART 09:10:10 POLAND M 7
2 WALMSLEY JIM 09:17:18 UNITED STATES OF AMERICA M 24
3 TRANCHAND FREDERIC 09:26:32 FRANCE M 80
4 ELAZZAOUI ELHOUSINE 09:28:46 MOROCCO M 15
5 ANGERMUND STIAN 09:29:05 NORWAY M 1
6 CARDONA ORIOL 09:33:59 SPAIN M 26
7 PUPPI FRANCESCO 09:44:07 ITALY M 25
8 BONNET REMI 09:44:46 SWITZERLAND M 11
9 MARTIN NICOLAS 09:47:37 FRANCE M 28
10 BARONIAN THIBAUT 09:52:30 FRANCE M 5
11 BAUJARD JOHANN 09:54:17 FRANCE M 41
12 HADORN JOEY 09:56:35 SWITZERLAND M 33
13 ARNAUD BONIN 09:59:29 FRANCE M 17
14 EGEA ARITZ 10:01:13 SPAIN M 9
15 BORGIALLI RICCARDO 10:06:09 ITALY M 18
16 BOFFELLI WILLIAM 10:07:35 ITALY M 35
17 RZESZOTKO MARCIN 10:11:31 POLAND M 44
18 HUMBERT DAMIEN 10:12:35 FRANCE M 36
19 DEL PERO LUCA 10:18:39 ITALY M 205
20 BUCHS PASCAL 10:19:18 SWITZERLAND M 42
21 MARGARIT JAN 10:22:19 SPAIN M 14
22 ALCALDE ANTONIO 10:23:16 SPAIN M 104
23 HOFFMANN BENEDIKT 10:24:25 GERMANY M 37
24 EGLI PASCAL 10:31:51 SWITZERLAND M 30
25 PELISEK DAVID 10:32:32 CZECH REPUBLIC M 55
26 SILVA BRUNO 10:32:34 PORTUGAL M 105
27 POMMERET LUDOVIC 10:34:20 FRANCE M 34
28 FORCADES ALEJANDRO 10:40:14 SPAIN M 203
29 CARTWRIGHT WILLIAM 10:40:19 UNITED KINGDOM M 48
30 HERNANDEZTEIXIDOR EDUARD 10:41:24 SPAIN M 16
31 MATHYS MAUDE 10:47:41 SWITZERLAND F 1ere F 8
32 ATKINS RYAN 10:48:02 CANADA M 47
33 BOSTROM MARTEN 10:49:37 FINLAND M 45
34 MEZQUITA SANTIAGO 10:50:01 SPAIN M 161
35 MOITOSO DARIO 10:52:31 PORTUGAL M 38
36 LJUNGDAHL SEBASTIAN 10:54:19 SWEDEN M 82
37 RORICH ROBERT 10:55:38 SOUTH AFRICA M 99
38 DRAKE RACHEL 10:56:53 UNITED STATES OF AMERICA F 2 F 52
39 PARADEISOPOULOS KONSTANTINOS 10:57:08 GREECE M 113
40 LHIRONDEL BLANDINE 11:02:42 SEF FRANCE F 3 F 85
41 SOUSA BRUNO 11:04:30 PORTUGAL M 190
42 ALEXANDERSSON TOVE 11:06:43 SWEDEN F 4 F 49
43 GRUN VOJTECH 11:19:07 CZECH REPUBLIC M 114
44 LUNA LIMA JOHN 11:21:33 UNITED STATES OF AMERICA M 98
45 ASTROM JOHANNA 11:26:04 SWEDEN F 5 F 86
46 BRUYAS CAMILLE 11:38:07 FRANCE F 6 F 57
47 RYUNOSUKE OMI 11:39:27 JAPAN M 43
48 DOMENECH ALEIX 11:42:50 SPAIN M 78
49 VASINOVA MARCELA 11:43:46 CZECH REPUBLIC F 7 F 53
50 BORGSTROM FANNY 11:44:18 SWEDEN F 8 F 13
51 CROFT RUTH 11:44:24 NEW ZEALAND F 9 F 2
52 TANGUY AUDREY 11:45:57 FRANCE F 10 F 88
53 VELOSO RUBEN 11:49:07 PORTUGAL M 112
54 BOUCARD ANTHONY 11:53:37 FRANCE M 188
55 KJ?REVIK ANDERS 11:54:50 NORWAY M 81
56 GOUVEIA ROMEU 11:57:21 PORTUGAL M 103
57 FERREIRA FILIPE 11:59:56 PORTUGAL M 198
58 LINDL MARKUS 12:00:37 AUSTRIA M 185
59 SAGNES MATHILDE 12:03:07 FRANCE F 60
60 ERKKILA ANNA STIINA 12:06:20 FINLAND F 74
61 MARTINEZ ANTONIO 12:10:59 SPAIN M 31
62 MANUEL JORGE 12:11:30 PORTUGAL M 244
63 GUILLOT BOISSET MYRIAM 12:12:14 FRANCE F 87
64 CHINI ALESSANDRO 12:13:06 ITALY M 110
65 MACKENZIE MEG 12:18:02 SOUTH AFRICA F 6
66 SCHMITZ EMILY 12:28:21 UNITED STATES OF AMERICA F 204
67 GERMAIN LUCILLE 12:28:47 FRANCE F 63
68 KOWALCZYK BAILEY 12:32:19 UNITED STATES OF AMERICA F 64
69 WITOWSKA MIROSLAWA 12:32:55 POLAND F 130
70 NUNES BRUNO 12:33:28 PORTUGAL M 221
71 SUBRAMANIAN SAMPATHKUMAR 12:34:36 INDIA M 248
72 OPARA DANIEL 12:40:24 CROATIA M 139
73 MATTOX KIMBER 12:41:22 UNITED STATES OF AMERICA F 66
74 MARQUES INeS 12:42:16 PORTUGAL F 102
75 FONT JULIA 12:43:10 SPAIN F 73
76 GOMES JOEL 12:44:08 PORTUGAL M 234
77 WILLHOIT SARA 12:44:08 UNITED KINGDOM F 54
78 PAGOT VINCENT 12:49:38 CANADA M 148
79 HIRSBRUNNER ALEXANDER 12:53:16 SWITZERLAND M 214
80 TEIXEIRA ARMANDO 12:53:45 PORTUGAL M 108
81 WEBSTER LINDSAY 13:01:33 CANADA F 61
82 YURI YOSHIZUMI 13:01:47 JAPAN F 56
83 TRIGG WESLEY 13:02:37 UNITED KINGDOM M 194
84 SOARES LEANDRO 13:12:34 PORTUGAL M 166
85 FRITSCHE FRANK 13:14:37 GERMANY M 149
86 CARRION GISELA 13:15:41 SPAIN F 21
87 PESSEY IRIS 13:17:15 FRANCE F 101
88 GONCALVES RICARDO 13:17:52 PORTUGAL M 144
89 MACHADO ANDRE 13:19:28 PORTUGAL M 164
90 WILHEM ARIANE 13:21:12 SWITZERLAND F 76
91 BLANES ANDREU 13:23:18 SPAIN M 65
92 RISCH LISA 13:24:34 GERMANY F 134
93 DAVIES MATTHEW 13:46:09 UNITED KINGDOM M 195
94 SONNERBORG WADENHORN ANNIE 13:47:37 SWEDEN F 84
95 VIEIRA NELSON 13:50:59 PORTUGAL M 158
96 URRUTIA AITOR 14:05:50 SPAIN M 239
97 RUBIN ALEXANDER 14:07:26 SWITZERLAND M 146
98 ALVES ESTER 14:13:13 PORTUGAL F 109
99 HEGEMANN IDA SOPHIE 14:15:40 GERMANY F 121
100 MACHADO MARIANA 14:21:45 PORTUGAL F 218
101 DE BUSSCHER JAN 14:21:53 BELGIUM M 136
102 DUARTE ROBERTO 14:31:33 PORTUGAL M 126
103 DUBOIS BENJAMIN 14:31:58 FRANCE M 156
104 FREITAS LUISA 14:32:39 PORTUGAL F 249
105 CIRSTOVEANU DANIEL 14:33:44 ROMANIA M 120
106 BONDIA HECTOR 14:39:02 SPAIN M 201
107 ZUCCOLLO FEDERICA 14:40:02 ITALY F 71
108 HOLBEIN JAN 14:40:50 GERMANY M 122
109 HAIBIKER AIDAN 14:41:14 UNITED KINGDOM M 192
110 PINTO ANTONIO 14:46:59 PORTUGAL M 142
111 CUFER ANA 14:47:28 SLOVENIA F 70
112 FREITAS BRUNO 14:48:11 PORTUGAL M 189
113 FERTIN CANDICE 14:50:57 FRANCE F 79
114 FASLER SILVIO 14:55:37 SWITZERLAND M 151
115 ESPERANCO JOANA 14:57:55 PORTUGAL F 245
116 ALVES PAULO 15:04:10 PORTUGAL M 157
117 DETIENNE THEO 15:05:29 FRANCE M 40
118 CAMOCARDI MAURICIO 15:08:36 ITALY M 242
119 SILVA TELMO 15:12:18 PORTUGAL M 123
120 VIANA DIOGO 15:16:33 PORTUGAL M 227
121 LEMOS HELDER 15:18:49 PORTUGAL M 140
122 PEREZ JOSE 15:27:20 SPAIN M 135
123 MARQUES MIGUEL 15:27:38 PORTUGAL M 226
124 LOUZEIRO ANDRE 15:28:55 PORTUGAL M 175
125 MARTINS RUI 15:33:01 PORTUGAL M 210
126 RAPOSO GONCALO 15:37:31 PORTUGAL M 236
127 BLAYER TIAGO 15:42:28 PORTUGAL M 183
128 LEGUIN KATHLEEN 15:47:07 FRANCE F 150
129 COLLINI ISACCO 15:48:41 ITALY M 129
130 PEREIRA MARGARIDA 15:49:33 PORTUGAL F 159
131 VENINI GIORGIO 15:51:40 ITALY M 225
132 MAGALI ALQUIER 16:00:52 FRANCE F 127
133 GILLI SONIA 16:03:05 SWITZERLAND F 147
134 ANDRE CARLOS 16:08:10 PORTUGAL M 184
135 YADAV JAYGOVIND 16:39:37 INDIA M 212
136 GINJA JORGE 16:40:08 PORTUGAL M 187
137 WEISSNE STEPHAN 16:42:00 GERMANY M 199
138 FERNANDEZ OSCAR 16:42:25 SPAIN M 131
139 NEVES NELSON 16:44:12 PORTUGAL M 251
140 REY JUAN 16:48:56 SPAIN M 232
141 GOULART PAULO 17:03:13 PORTUGAL M 231
142 SA JOSE 17:06:01 PORTUGAL M 178
143 CUNHA RUI 17:17:14 PORTUGAL M 167
144 GAMEIRO NUNO 17:18:39 PORTUGAL M 181
145 FRANCISCO CESAR 17:31:00 PORTUGAL M 224
146 LOUREIRO PAULO 17:34:08 PORTUGAL M 125
147 MOOSMULLER ANDREA 17:34:14 GERMANY F 209
148 SANTOS RICARDO 17:38:00 PORTUGAL M 182
149 SILVA RAFAEL 17:57:42 PORTUGAL M 186
150 BARROS GUSTAVO 18:04:08 PORTUGAL M 233
151 VLTAVSKY PETR 18:09:38 CZECH REPUBLIC M 111
152 DUARTE JOSE 18:11:21 PORTUGAL M 179
153 TUBAL SONIA 18:28:43 PORTUGAL F 211
154 LOAIZA ARNOLDO 18:32:25 COSTA RICA M 118
155 CASAUBON MARTIN 18:32:58 CANADA M 168
156 OLIVEIRA HUGO 18:59:15 PORTUGAL M 223
157 COSTA EDUARDO 19:17:17 PORTUGAL M 174
158 STRELNITCKII ALEKSEI 19:38:23 RUSSIAN FEDERATION M 191
159 GONCALVES CESAR 19:45:05 PORTUGAL M 229
160 CABRITA EDUARDO 19:56:04 PORTUGAL M 137
161 LEDESMA MARIA 20:01:25 DENMARK F 207
162 GOMES PAULO 20:17:19 PORTUGAL M 170
163 DELLOMODARME LORENZO 20:23:59 ITALY M 154
164 OOSTLANDER ALEJANDRO 20:25:14 SPAIN M 169
165 MEDEIROS RUBEN 20:42:53 PORTUGAL M 124
166 GARCIA DAVID 22:00:09 PORTUGAL M 228
167 PEDRO MARCO 22:44:16 PORTUGAL M 222
168 MIZAIKOFF BORIS 22:47:53 AUSTRIA M 200
169 ALI ALAA 23:34:12 EGYPT M 145
170 MELO OTAVIO 24:42:26 PORTUGAL M 250


ReferencementCe site est listé dans la catégorie Sport : Sports extrêmes Dictionnaire
| Accueil | La Réunion  Vue du ciel | Météo | Cyclones | Volcan | Cirques de Mafate , Cilaos , Salazie | Photos Randonnées | Randonnées Réunion: Randos Espiègle , Courses montagne | Diagonale des Fous |  Marathon des Sables | Voyages Les stats du site | Fonds écran | Plan du site | Blog de runraid | Galerie photos Sport Réunion |